Terminal Aerodrome Forecast
Issued by NWS

Home | Current Version | Previous Version | Text Only | Print | Product List | Glossary On
Versions: 1 2 3 4 5 6 7 8 9 10 11 12 13 14 15 16 17 18 19 20 21 22 23 24 25 26 27 28 29 30 31 32 33 34 35 36 37 38 39 40 41 42 43 44 45 46 47 48 49 50
000
FTUS45 KBOU 030100 AAA
TAFAPA
TAF AMD
KAPA 030100Z 0301/0324 VRB05KT P6SM FEW090
     FM030200 17014KT P6SM FEW090
     FM030400 21011KT P6SM FEW100
     FM031200 31007KT P6SM FEW100 SCT150
     FM031500 36009KT P6SM SCT110 SCT220
     FM031700 03011KT P6SM FEW060 SCT110
     FM032100 05012KT P6SM VCTS SCT060CB BKN100
      TEMPO 0322/0324 VRB20G35KT 5SM TSRAGS BKN050CB=

USA.gov is the U.S. government's official web portal to all federal, state and local government web resources and services.